Погода в Чистых Борах

Россия / Костромская область     58°22′08″N   41°39′31″E
темп.,
°C
ветер,
м/с
пор.,
м/с
влажн.,
%
обл.,
%
осадки,
мм/ч
давл.,
гПа
погр.,
м
6 марта, сб
сб600:00−14зсз229766 0.1 101163
03:00−14з239783 0.3 101386
06:00−17сз229995 0.0 101321
09:00−15зсз249585 0.1 1014161
12:00−11зсз248792 0.0 1014559
15:00−9з358396 0.1 1013850
18:00−13зюз239293 0.1 101220
21:00−14юз339667 0.1 101255
7 марта, вс
вс700:00−15ююз369740 0.0 1009104
03:00−15ю4109540 0.0 1006221
06:00−12ю6149097 0.0 1002429
09:00−9ю6129299 0.4 999644
12:00−7ю61190100 0.4 995781
15:00−6ююв61093100 1.0 992836
18:00−6юв4995100 0.8 989598
21:00−6вюв4995100 1.7 988467
8 марта, пн
пн800:00−7в3696100 0.9 988287
03:00−7св2596100 1.6 989194
06:00−8ссв3696100 0.6 990273
09:00−8ссв4794100 1.2 991453
12:00−8ссв5790100 0.3 994615
15:00−8с5891100 0.6 996723
18:00−11с4993100 0.3 999540
21:00−12с499498 0.5 1003513
9 марта, вт
вт900:00−14ссз4109396 0.1 1005458
03:00−17ссз499598 0.1 1008348
06:00−20ссз4897100 0.1 1010255
09:00−22ссз469687 0.1 1012256
12:00−17сз359176 0.0 1013401
15:00−15сз468988 0.0 1014583
18:00−18сз3396100 0.0 101559
21:00−22ссз2399100 0.1 101741
10 марта, ср
ср1000:00−25с2210079 0.0 101819
03:00−27ссз239944 0.0 101819
06:00−30с23990 0.0 101923
09:00−26с24960 0.0 1020190
12:00−20с238776 0.0 1019427
15:00−17ссз228188 0.0 1018601
18:00−22ссз119498 0.0 101820
21:00−26юв119966 0.0 101820